Notices

What's New in latest Release from April 7th, 2021:

- Updated Glossary, including Speed of Maximum Gust, and Total Hourly Precipitation

- Updated national and regional climate services offices contacts and prices information

- Addition of station inventory lists for 1981-2010, 1971-2000, and 1961-1990 Normals.

If you haven't already, please take our survey and provide feedback about our website: https://eccc.sondage-survey.ca/f/LanguageSelection.aspx?s=442ca660-fcf1-47c0-95a9-59707d6fd709

Hourly Data Report for September 22, 2019

QUALICUM BEACH AIRPORT
BRITISH COLUMBIA
Current Station Operator: ECCC - MSC

49°20'14.000" N
124°23'38.000" W
58.20 m
1026562
71766
VOQ

Download Data

Hourly Data (September 2019)
Hourly Data Report for September 22, 2019
TIME
LST
Temp Definition
°C
Dew Point Definition
°C
Rel Hum Definition
%
Precip. Amount Definition
mm

Wind Dir Definition
10's deg

Wind Spd Definition
km/h
Visibility Definition
km
Stn Press Definition
kPa
Hmdx Definition


Wind Chill Definition


Weather Definition


00:00 14.6 13.2 92 0.0 12 15   100.40     LegendNANA
01:00 14.3 13.3 94 0.2 12 16   100.37     LegendNANA
02:00 14.0 13.2 95 0.2 12 11   100.33     LegendNANA
03:00 14.0 13.0 94 0.2 12 16   100.26     LegendNANA
04:00 13.9 13.0 95 0.0 12 13   100.21     LegendNANA
05:00 13.8 13.0 95 0.7 12 14   100.15     LegendNANA
06:00 13.8 13.0 95 0.0 12 9   100.10     LegendNANA
07:00 13.8 13.1 96 1.2 9 2   100.14     LegendNANA
08:00 14.1 13.5 96 1.1 14 4   100.18     LegendNANA
09:00 14.4 13.8 96 1.2 13 5   100.19     LegendNANA
10:00 14.8 14.2 96 0.4 11 5   100.20     LegendNANA
11:00 14.9 14.4 96 1.1 7 4   100.21     LegendNANA
12:00 15.4 14.9 97 1.7 33 5   100.26     LegendNANA
13:00 14.3 13.7 96 0.3 31 14   100.31     LegendNANA
14:00 13.8 13.2 96 0.0 32 16   100.38     LegendNANA
15:00 14.2 13.2 94 0.2 28 8   100.43     LegendNANA
16:00 15.4 13.7 90 0.0 27 7   100.46     LegendNANA
17:00 15.3 13.1 87 0.0 28 7   100.48     LegendNANA
18:00 14.1 12.3 89 0.0 27 6   100.51     LegendNANA
19:00 13.2 11.1 87 0.0 28 8   100.60     LegendNANA
20:00 12.5 10.9 90 0.0 27 7   100.68     LegendNANA
21:00 11.2 10.1 93 0.0 27 6   100.73     LegendNANA
22:00 10.7 9.7 93 0.0 25 3   100.75     LegendNANA
23:00 9.9 9.3 96 0.0 24 3   100.80     LegendNANA

Notes on Data Quality.

Legend

  • E = Estimated
  • M = Missing
  • NA = Not Available*
  • [empty] = Indicates an unobserved value
Date modified: